EW8838 Weather Reports


Display with metric or nautical units.
time (UTC)temp
F
wind
direction
speed
MPH
gust
MPH
rain 1hr
in
rain 24hr
in
rain mn
in
humidity
%
barometer
mb
20260507025122 54 299 5.0 11.0 0.00 0.00 0.00 91 1021.4
20260507024145 54 267 6.0 15.0 0.00 0.00 0.00 90 1021.3
20260507023122 54 274 6.0 14.0 0.00 0.00 0.00 90 1021.3
20260507022122 54 279 5.0 11.0 0.00 0.00 0.00 90 1021.4
20260507021122 54 285 5.0 9.0 0.00 0.00 0.00 90 1021.3
20260507020122 54 314 5.0 9.0 0.00 0.00 0.00 90 1021.4
20260507015122 54 269 5.0 10.0 0.00 0.00 0.00 90 1021.5
20260507014122 54 278 7.0 13.0 0.00 0.00 0.00 90 1021.5
20260507013122 55 271 5.0 11.0 0.00 0.00 0.00 89 1021.5
20260507012143 54 291 6.0 12.0 0.00 0.00 0.00 89 1021.5
20260507011122 55 294 7.0 13.0 0.00 0.00 0.00 89 1021.7
20260507010122 55 280 6.0 12.0 0.00 0.00 0.00 89 1021.6
20260507005122 55 264 7.0 12.0 0.00 0.00 0.00 89 1021.5
20260507004122 55 277 7.0 14.0 0.00 0.00 0.00 89 1021.6
20260507003122 55 274 6.0 14.0 0.00 0.00 0.00 89 1021.4
20260507002122 55 262 7.0 13.0 0.00 0.00 0.00 89 1021.4
20260507001122 55 334 8.0 11.0 0.00 0.00 0.00 89 1021.7
20260507000122 55 283 7.0 14.0 0.00 0.00 0.00 88 1021.6
20260506235122 55 259 8.0 15.0 0.00 0.00 0.00 88 1021.6
20260506234122 56 281 7.0 14.0 0.00 0.00 0.00 88 1021.6
20260506233122 56 269 6.0 15.0 0.00 0.00 0.00 88 1021.6
20260506232122 56 276 6.0 14.0 0.00 0.00 0.00 88 1021.5
20260506231122 56 288 5.0 10.0 0.00 0.00 0.00 88 1021.6
20260506230122 56 269 7.0 13.0 0.00 0.00 0.00 88 1021.7
20260506225122 56 277 6.0 12.0 0.00 0.00 0.00 88 1021.7
20260506224122 56 287 6.0 11.0 0.00 0.00 0.00 87 1021.9
20260506223122 56 271 8.0 15.0 0.00 0.00 0.00 87 1022.1
20260506222128 57 283 5.0 10.0 0.00 0.00 0.00 87 1022.0
20260506222123 57 281 5.0 10.0 0.00 0.00 0.00 87 1022.0
20260506221122 57 280 7.0 14.0 0.00 0.00 0.00 86 1022.1
20260506220122 57 295 7.0 13.0 0.00 0.00 0.00 86 1022.4
20260506215122 57 293 6.0 12.0 0.00 0.00 0.00 86 1022.4
20260506214122 57 272 7.0 12.0 0.00 0.00 0.00 85 1022.4
20260506213122 58 268 7.0 13.0 0.00 0.00 0.00 85 1022.5
20260506212122 58 259 6.0 13.0 0.00 0.00 0.00 85 1022.6
20260506211122 58 286 8.0 8.0 0.00 0.00 0.00 85 1022.4
20260506210122 58 298 6.0 10.0 0.00 0.00 0.00 85 1022.5
20260506205122 58 274 7.0 12.0 0.00 0.00 0.00 85 1022.5
20260506204122 58 280 6.0 12.0 0.00 0.00 0.00 85 1022.6
20260506203122 58 264 7.0 13.0 0.00 0.00 0.00 84 1022.6
20260506202122 59 259 6.0 13.0 0.00 0.00 0.00 84 1022.7
20260506201122 58 262 6.0 11.0 0.00 0.00 0.00 83 1022.7
20260506200122 59 262 6.0 12.0 0.00 0.00 0.00 83 1022.7
20260506195144 59 267 5.0 9.0 0.00 0.00 0.00 83 1022.8
20260506194122 59 260 6.0 11.0 0.00 0.00 0.00 84 1022.8
20260506193143 58 260 5.0 11.0 0.00 0.00 0.00 85 1023.0
20260506192122 58 256 7.0 13.0 0.00 0.00 0.00 84 1023.0
20260506191122 58 258 6.0 11.0 0.00 0.00 0.00 84 1023.1
20260506190122 58 264 6.0 12.0 0.00 0.00 0.00 84 1023.2
20260506185122 58 262 5.0 9.0 0.00 0.00 0.00 85 1023.0
20260506184122 57 256 6.0 9.0 0.00 0.00 0.00 85 1023.1
20260506183122 57 271 4.0 9.0 0.00 0.00 0.00 86 1023.2
20260506182143 56 252 5.0 11.0 0.00 0.00 0.00 86 1023.2
20260506181122 56 326 5.0 9.0 0.00 0.00 0.00 86 1023.2
20260506180122 57 267 4.0 9.0 0.00 0.00 0.00 86 1023.1
20260506175143 56 260 5.0 10.0 0.00 0.00 0.00 86 1023.1
20260506174122 56 272 5.0 11.0 0.00 0.00 0.00 86 1023.0
20260506173122 56 269 4.0 7.0 0.00 0.00 0.00 87 1023.0
20260506172123 56 293 4.0 8.0 0.00 0.00 0.00 87 1023.0
20260506171143 56 266 4.0 10.0 0.00 0.00 0.00 87 1023.0
20260506170122 56 254 5.0 11.0 0.00 0.00 0.00 87 1023.0
20260506165143 56 314 3.0 7.0 0.00 0.00 0.00 87 1023.0
20260506164143 56 270 4.0 9.0 0.00 0.00 0.00 87 1023.0
20260506163143 55 252 3.0 8.0 0.00 0.00 0.00 87 1023.0
20260506162122 55 256 4.0 7.0 0.00 0.00 0.00 87 1023.0
20260506161122 55 255 2.0 4.0 0.00 0.00 0.00 88 1023.0
20260506160122 55 258 3.0 6.0 0.00 0.00 0.00 88 1023.0
20260506155122 55 257 2.0 4.0 0.00 0.00 0.00 88 1023.0
20260506154143 55 257 3.0 6.0 0.00 0.00 0.00 88 1022.9
20260506153122 55 255 4.0 6.0 0.00 0.00 0.00 88 1022.8
20260506152143 55 269 2.0 7.0 0.00 0.00 0.00 88 1022.9
20260506151122 55 315 3.0 4.0 0.00 0.00 0.00 87 1022.8
20260506150122 55 313 2.0 4.0 0.00 0.00 0.00 87 1022.9
20260506145122 55 302 2.0 5.0 0.00 0.00 0.00 87 1022.8
20260506144122 55 305 3.0 5.0 0.00 0.00 0.00 87 1022.7
20260506143122 55 289 2.0 4.0 0.00 0.00 0.00 86 1022.7
20260506142122 55 285 2.0 6.0 0.00 0.00 0.00 86 1022.6
20260506141122 55 333 1.0 3.0 0.00 0.00 0.00 85 1022.5
20260506140122 55 334 3.0 5.0 0.00 0.00 0.00 85 1022.3
20260506135122 54 346 2.0 5.0 0.00 0.00 0.00 85 1022.1
20260506134122 54 296 3.0 7.0 0.00 0.00 0.00 86 1022.1
20260506133122 54 312 2.0 6.0 0.00 0.00 0.00 86 1022.1
20260506132122 54 302 3.0 5.0 0.00 0.00 0.00 86 1021.9
20260506131122 54 323 3.0 5.0 0.00 0.00 0.00 86 1021.8
20260506130143 54 290 2.0 7.0 0.00 0.00 0.00 86 1021.8
20260506125122 54 284 2.0 4.0 0.00 0.00 0.00 86 1021.8
20260506124122 54 300 2.0 3.0 0.00 0.00 0.00 86 1021.7
20260506123122 54 300 2.0 4.0 0.00 0.00 0.00 86 1021.6
20260506122122 55 293 2.0 4.0 0.00 0.00 0.00 86 1021.6
20260506121122 55 253 3.0 3.0 0.00 0.00 0.00 86 1021.5
20260506120143 55 256 3.0 7.0 0.00 0.00 0.00 86 1021.4
20260506115122 55 251 3.0 8.0 0.00 0.00 0.00 87 1021.4
20260506114143 55 256 2.0 5.0 0.00 0.00 0.00 86 1021.3
20260506113122 54 255 2.0 4.0 0.00 0.00 0.00 86 1021.3
20260506112122 54 252 0.0 2.0 0.00 0.00 0.00 86 1021.4
20260506111122 54 253 3.0 7.0 0.00 0.00 0.00 86 1021.3
20260506110122 55 257 2.0 4.0 0.00 0.00 0.00 87 1021.2
20260506105122 55 263 2.0 4.0 0.00 0.00 0.00 87 1021.1
20260506104122 55 266 2.0 6.0 0.00 0.00 0.00 86 1021.1
20260506103122 55 261 3.0 7.0 0.00 0.00 0.00 87 1021.2
20260506102122 55 251 2.0 4.0 0.00 0.00 0.00 87 1021.1
20260506101122 55 250 2.0 4.0 0.00 0.00 0.00 87 1021.2
20260506100122 55 252 3.0 7.0 0.00 0.00 0.00 87 1021.1
20260506095143 55 259 2.0 7.0 0.00 0.01 0.00 87 1021.2
20260506094122 55 262 3.0 7.0 0.00 0.01 0.00 88 1021.2
20260506093122 55 266 1.0 4.0 0.00 0.01 0.00 88 1021.2
20260506092122 55 264 3.0 6.0 0.00 0.01 0.00 88 1021.1
20260506091122 55 254 1.0 3.0 0.00 0.01 0.00 88 1021.0
20260506090122 55 250 3.0 5.0 0.00 0.01 0.00 88 1021.1
20260506085122 55 262 2.0 7.0 0.00 0.07 0.00 88 1021.0
20260506084122 55 301 2.0 5.0 0.00 0.07 0.00 88 1021.1
20260506083143 55 245 2.0 5.0 0.00 0.07 0.00 89 1021.1
20260506082122 55 309 2.0 5.0 0.00 0.07 0.00 89 1021.2
20260506081123 55 276 3.0 7.0 0.00 0.07 0.00 89 1021.2
20260506080122 55 259 2.0 4.0 0.00 0.07 0.00 89 1021.2
20260506073143 55 262 2.0 4.0 0.00 0.10 0.00 89 1020.8
20260506072122 55 261 2.0 6.0 0.00 0.10 0.00 89 1020.8
20260506071122 55 259 3.0 6.0 0.00 0.10 0.00 89 1020.8
20260506070122 55 261 2.0 6.0 0.00 0.10 0.00 89 1020.7
20260506062122 55 261 2.0 4.0 0.00 0.11 0.10 89 1020.5
20260506061122 55 260 2.0 6.0 0.00 0.11 0.10 89 1020.4
20260506060123 55 255 2.0 5.0 0.00 0.11 0.10 89 1020.4
20260506051123 56 238 2.0 4.0 0.00 0.11 0.10 89 1020.3
20260506050124 56 239 1.0 3.0 0.00 0.11 0.10 89 1020.3
20260506045124 56 225 2.0 5.0 0.00 0.11 0.10 89 1020.1
20260506044123 56 222 1.0 5.0 0.00 0.11 0.10 89 1020.0
20260506043122 56 219 1.0 3.0 0.00 0.11 0.10 89 1020.0
20260506042122 56 218 2.0 4.0 0.00 0.11 0.10 89 1019.9
20260506041122 56 212 1.0 4.0 0.00 0.11 0.10 89 1019.7
20260506040123 56 213 1.0 3.0 0.00 0.11 0.10 88 1019.6
20260506035122 56 173 1.0 4.0 0.00 0.11 0.10 88 1019.6
20260506034123 56 160 1.0 4.0 0.00 0.11 0.10 88 1019.3
20260506033122 56 198 2.0 6.0 0.00 0.11 0.10 88 1019.2
20260506032123 56 235 2.0 5.0 0.00 0.11 0.10 87 1019.1
20260506031122 56 231 2.0 3.0 0.00 0.11 0.10 87 1018.9
20260506030122 56 240 2.0 5.0 0.00 0.11 0.10 87 1018.9